Time,TemperatureF,DewpointF,PressureIn,WindDirection,WindDirectionDegrees,WindSpeedMPH,WindSpeedGustMPH,Humidity,HourlyPrecipIn,Conditions,Clouds,dailyrainin,SoftwareType,DateUTC
2013-01-16 00:03:00,46.0,43.0,-100.00,ENE,70,2.0,5.0,89,-99.99,,,-99.99,,2013-01-16 05:03:00,
2013-01-16 00:12:00,46.0,43.0,-100.00,ENE,70,1.0,5.0,89,-99.99,,,-99.99,,2013-01-16 05:12:00,
2013-01-16 00:23:00,46.0,43.0,-100.00,ENE,70,4.0,6.0,89,-99.99,,,-99.99,,2013-01-16 05:23:00,
2013-01-16 00:32:00,46.0,43.0,-100.00,ENE,70,3.0,4.0,89,-99.99,,,-99.99,,2013-01-16 05:32:00,
2013-01-16 00:42:00,46.0,43.0,-100.00,ENE,70,2.0,6.0,89,-99.99,,,-99.99,,2013-01-16 05:42:00,
2013-01-16 00:53:00,46.0,43.0,-100.00,ENE,70,4.0,5.0,89,-99.99,,,-99.99,,2013-01-16 05:53:00,
2013-01-16 01:03:00,46.0,43.0,-100.00,ENE,70,2.0,4.0,89,-99.99,,,-99.99,,2013-01-16 06:03:00,
2013-01-16 01:12:00,46.0,43.0,-100.00,ENE,70,0.0,4.0,89,-99.99,,,-99.99,,2013-01-16 06:12:00,
2013-01-16 01:22:00,46.0,43.0,-100.00,ENE,70,2.0,4.0,89,-99.99,,,-99.99,,2013-01-16 06:22:00,
2013-01-16 01:32:00,46.0,43.0,-100.00,ENE,70,4.0,6.0,89,-99.99,,,-99.99,,2013-01-16 06:32:00,
2013-01-16 01:43:00,45.0,42.0,-100.00,ENE,70,4.0,4.0,89,-99.99,,,-99.99,,2013-01-16 06:43:00,
2013-01-16 01:52:00,45.0,42.0,-100.00,ENE,70,2.0,4.0,89,-99.99,,,-99.99,,2013-01-16 06:52:00,
2013-01-16 02:02:00,45.0,42.0,-100.00,ENE,70,1.0,2.0,89,-99.99,,,-99.99,,2013-01-16 07:02:00,
2013-01-16 02:12:00,45.0,42.0,-100.00,ENE,65,0.0,2.0,89,-99.99,,,-99.99,,2013-01-16 07:12:00,
2013-01-16 02:22:00,45.0,42.0,-100.00,ENE,70,0.0,3.0,89,-99.99,,,-99.99,,2013-01-16 07:22:00,
2013-01-16 02:33:00,45.0,42.0,-100.00,ENE,70,3.0,4.0,89,-99.99,,,-99.99,,2013-01-16 07:33:00,
2013-01-16 02:42:00,45.0,42.0,-100.00,ENE,70,2.0,4.0,89,-99.99,,,-99.99,,2013-01-16 07:42:00,
2013-01-16 02:52:00,45.0,42.0,-100.00,ENE,70,1.0,2.0,89,-99.99,,,-99.99,,2013-01-16 07:52:00,
2013-01-16 03:03:00,45.0,42.0,-100.00,ENE,70,0.0,1.0,89,-99.99,,,-99.99,,2013-01-16 08:03:00,
2013-01-16 03:12:00,45.0,42.0,-100.00,NE,50,0.0,1.0,89,-99.99,,,-99.99,,2013-01-16 08:12:00,
2013-01-16 03:22:00,45.0,42.0,-100.00,ENE,70,2.0,4.0,89,-99.99,,,-99.99,,2013-01-16 08:22:00,
2013-01-16 03:32:00,45.0,42.0,-100.00,ENE,70,4.0,6.0,89,-99.99,,,-99.99,,2013-01-16 08:32:00,
2013-01-16 03:42:00,45.0,42.0,-100.00,ENE,70,4.0,6.0,89,-99.99,,,-99.99,,2013-01-16 08:42:00,
2013-01-16 03:52:00,45.0,42.0,-100.00,ENE,70,0.0,5.0,89,-99.99,,,-99.99,,2013-01-16 08:52:00,
2013-01-16 04:02:00,45.0,42.0,-100.00,ENE,65,1.0,5.0,89,-99.99,,,-99.99,,2013-01-16 09:02:00,
2013-01-16 04:12:00,45.0,42.0,-100.00,ENE,65,0.0,2.0,89,-99.99,,,-99.99,,2013-01-16 09:12:00,
2013-01-16 04:22:00,45.0,42.0,-100.00,ENE,70,0.0,3.0,89,-99.99,,,-99.99,,2013-01-16 09:22:00,
2013-01-16 04:32:00,45.0,42.0,-100.00,ENE,70,0.0,2.0,89,-99.99,,,-99.99,,2013-01-16 09:32:00,
2013-01-16 04:43:00,45.0,42.0,-100.00,ENE,70,0.0,2.0,89,-99.99,,,-99.99,,2013-01-16 09:43:00,
2013-01-16 04:52:00,45.0,42.0,-100.00,ENE,70,0.0,1.0,89,-99.99,,,-99.99,,2013-01-16 09:52:00,
2013-01-16 05:03:00,45.0,42.0,-100.00,ENE,70,1.0,4.0,89,-99.99,,,-99.99,,2013-01-16 10:03:00,
2013-01-16 05:12:00,45.0,42.0,-100.00,ENE,70,2.0,4.0,89,-99.99,,,-99.99,,2013-01-16 10:12:00,
2013-01-16 05:22:00,45.0,42.0,-100.00,ENE,70,2.0,3.0,89,-99.99,,,-99.99,,2013-01-16 10:22:00,
2013-01-16 05:32:00,45.0,42.0,-100.00,ENE,70,2.0,4.0,89,-99.99,,,-99.99,,2013-01-16 10:32:00,
2013-01-16 05:43:00,45.0,42.0,-100.00,ENE,70,3.0,4.0,89,-99.99,,,-99.99,,2013-01-16 10:43:00,
2013-01-16 05:52:00,45.0,42.0,-100.00,ENE,70,2.0,4.0,89,-99.99,,,-99.99,,2013-01-16 10:52:00,
2013-01-16 06:02:00,45.0,42.0,-100.00,ENE,70,2.0,4.0,89,-99.99,,,-99.99,,2013-01-16 11:02:00,
2013-01-16 06:12:00,45.0,42.0,-100.00,ENE,70,4.0,6.0,89,-99.99,,,-99.99,,2013-01-16 11:12:00,
2013-01-16 06:23:00,45.0,42.0,-100.00,ENE,70,2.0,4.0,89,-99.99,,,-99.99,,2013-01-16 11:23:00,
2013-01-16 06:33:00,45.0,42.0,-100.00,ENE,70,3.0,4.0,89,-99.99,,,-99.99,,2013-01-16 11:33:00,
2013-01-16 06:43:00,45.0,42.0,-100.00,ENE,65,1.0,4.0,89,-99.99,,,-99.99,,2013-01-16 11:43:00,
2013-01-16 06:52:00,45.0,42.0,-100.00,ENE,65,2.0,4.0,89,-99.99,,,-99.99,,2013-01-16 11:52:00,
2013-01-16 07:03:00,45.0,42.0,-100.00,ENE,65,3.0,6.0,89,-99.99,,,-99.99,,2013-01-16 12:03:00,
2013-01-16 07:13:00,45.0,42.0,-100.00,ENE,70,4.0,5.0,89,-99.99,,,-99.99,,2013-01-16 12:13:00,
2013-01-16 07:22:00,45.0,42.0,-100.00,ENE,60,1.0,3.0,89,-99.99,,,-99.99,,2013-01-16 12:22:00,
2013-01-16 07:33:00,45.0,42.0,-100.00,ENE,70,1.0,4.0,89,-99.99,,,-99.99,,2013-01-16 12:33:00,
2013-01-16 07:43:00,45.0,42.0,-100.00,ENE,70,3.0,5.0,89,-99.99,,,-99.99,,2013-01-16 12:43:00,
2013-01-16 07:53:00,45.0,42.0,-100.00,ENE,65,0.0,4.0,89,-99.99,,,-99.99,,2013-01-16 12:53:00,
2013-01-16 08:03:00,45.0,42.0,-100.00,NE,50,1.0,1.0,89,-99.99,,,-99.99,,2013-01-16 13:03:00,
2013-01-16 08:12:00,45.0,42.0,-100.00,ENE,65,1.0,4.0,89,-99.99,,,-99.99,,2013-01-16 13:12:00,
2013-01-16 08:23:00,45.0,42.0,-100.00,ENE,70,1.0,2.0,89,-99.99,,,-99.99,,2013-01-16 13:23:00,
2013-01-16 08:33:00,45.0,42.0,-100.00,ENE,70,1.0,1.0,89,-99.99,,,-99.99,,2013-01-16 13:33:00,
2013-01-16 08:43:00,45.0,42.0,-100.00,ENE,70,0.0,1.0,89,-99.99,,,-99.99,,2013-01-16 13:43:00,
2013-01-16 08:52:00,45.0,42.0,-100.00,ENE,70,0.0,1.0,89,-99.99,,,-99.99,,2013-01-16 13:52:00,
2013-01-16 09:03:00,45.0,42.0,-100.00,ENE,70,1.0,1.0,89,-99.99,,,-99.99,,2013-01-16 14:03:00,
2013-01-16 09:12:00,45.0,42.0,-100.00,ENE,70,2.0,4.0,89,-99.99,,,-99.99,,2013-01-16 14:12:00,
2013-01-16 09:23:00,45.0,42.0,-100.00,ENE,70,1.0,3.0,89,-99.99,,,-99.99,,2013-01-16 14:23:00,
2013-01-16 09:33:00,46.0,43.0,-100.00,ENE,70,1.0,1.0,89,-99.99,,,-99.99,,2013-01-16 14:33:00,
2013-01-16 09:43:00,46.0,43.0,-100.00,ENE,70,1.0,2.0,89,-99.99,,,-99.99,,2013-01-16 14:43:00,
2013-01-16 09:53:00,46.0,43.0,-100.00,ENE,70,0.0,1.0,89,-99.99,,,-99.99,,2013-01-16 14:53:00,
2013-01-16 10:03:00,46.0,43.0,-100.00,ENE,70,0.0,1.0,89,-99.99,,,-99.99,,2013-01-16 15:03:00,
2013-01-16 10:12:00,46.0,43.0,-100.00,ENE,70,0.0,1.0,89,-99.99,,,-99.99,,2013-01-16 15:12:00,
2013-01-16 10:23:00,46.0,43.0,-100.00,ENE,70,1.0,1.0,89,-99.99,,,-99.99,,2013-01-16 15:23:00,
2013-01-16 10:33:00,46.0,43.0,-100.00,ENE,70,1.0,1.0,89,-99.99,,,-99.99,,2013-01-16 15:33:00,
2013-01-16 10:43:00,47.0,44.0,-100.00,ENE,70,0.0,1.0,89,-99.99,,,-99.99,,2013-01-16 15:43:00,
2013-01-16 10:52:00,47.0,44.0,-100.00,ENE,70,1.0,1.0,89,-99.99,,,-99.99,,2013-01-16 15:52:00,
2013-01-16 11:04:00,48.0,45.0,-100.00,ENE,70,0.0,1.0,89,-99.99,,,-99.99,,2013-01-16 16:04:00,
2013-01-16 11:12:00,48.0,45.0,-100.00,ENE,70,0.0,1.0,89,-99.99,,,-99.99,,2013-01-16 16:12:00,
2013-01-16 11:23:00,49.0,46.0,-100.00,ENE,70,3.0,4.0,89,-99.99,,,-99.99,,2013-01-16 16:23:00,
2013-01-16 11:33:00,49.0,46.0,-100.00,ENE,70,2.0,4.0,89,-99.99,,,-99.99,,2013-01-16 16:33:00,
2013-01-16 11:43:00,49.0,46.0,-100.00,ENE,70,4.0,5.0,89,-99.99,,,-99.99,,2013-01-16 16:43:00,
2013-01-16 11:52:00,49.0,46.0,-100.00,ENE,70,5.0,6.0,89,-99.99,,,-99.99,,2013-01-16 16:52:00,
2013-01-16 12:03:00,49.0,46.0,-100.00,ENE,70,4.0,6.0,89,-99.99,,,-99.99,,2013-01-16 17:03:00,
2013-01-16 12:12:00,49.0,46.0,-100.00,ENE,70,3.0,5.0,89,-99.99,,,-99.99,,2013-01-16 17:12:00,
2013-01-16 12:23:00,49.0,46.0,-100.00,ENE,70,2.0,6.0,89,-99.99,,,-99.99,,2013-01-16 17:23:00,
2013-01-16 12:33:00,49.0,46.0,-100.00,ENE,70,1.0,4.0,89,-99.99,,,-99.99,,2013-01-16 17:33:00,
2013-01-16 12:44:00,49.0,46.0,-100.00,ENE,70,0.0,3.0,89,-99.99,,,-99.99,,2013-01-16 17:44:00,
2013-01-16 12:53:00,49.0,46.0,-100.00,ENE,70,0.0,3.0,89,-99.99,,,-99.99,,2013-01-16 17:53:00,
2013-01-16 13:03:00,49.0,46.0,-100.00,ENE,70,0.0,1.0,89,-99.99,,,-99.99,,2013-01-16 18:03:00,
2013-01-16 13:13:00,49.0,46.0,-100.00,ENE,70,0.0,1.0,89,-99.99,,,-99.99,,2013-01-16 18:13:00,
2013-01-16 13:23:00,50.0,47.0,-100.00,ENE,70,0.0,4.0,89,-99.99,,,-99.99,,2013-01-16 18:23:00,
2013-01-16 13:33:00,50.0,47.0,-100.00,ENE,70,1.0,4.0,89,-99.99,,,-99.99,,2013-01-16 18:33:00,
2013-01-16 13:43:00,50.0,47.0,-100.00,ENE,70,2.0,3.0,89,-99.99,,,-99.99,,2013-01-16 18:43:00,
2013-01-16 13:53:00,50.0,47.0,-100.00,ENE,70,2.0,3.0,89,-99.99,,,-99.99,,2013-01-16 18:53:00,
2013-01-16 14:03:00,50.0,47.0,-100.00,ENE,70,2.0,4.0,89,-99.99,,,-99.99,,2013-01-16 19:03:00,
2013-01-16 14:13:00,50.0,47.0,-100.00,ENE,70,4.0,6.0,89,-99.99,,,-99.99,,2013-01-16 19:13:00,
2013-01-16 14:23:00,50.0,46.0,-100.00,ENE,70,6.0,9.0,88,-99.99,,,-99.99,,2013-01-16 19:23:00,
2013-01-16 14:33:00,50.0,46.0,-100.00,ENE,70,2.0,8.0,88,-99.99,,,-99.99,,2013-01-16 19:33:00,
2013-01-16 14:43:00,50.0,47.0,-100.00,ENE,70,0.0,4.0,88,-99.99,,,-99.99,,2013-01-16 19:43:00,
2013-01-16 14:52:00,51.0,47.0,-100.00,ENE,70,2.0,4.0,87,-99.99,,,-99.99,,2013-01-16 19:52:00,
2013-01-16 15:03:00,51.0,48.0,-100.00,ENE,70,1.0,3.0,87,-99.99,,,-99.99,,2013-01-16 20:03:00,
2013-01-16 15:12:00,51.0,47.0,-100.00,ENE,70,0.0,2.0,86,-99.99,,,-99.99,,2013-01-16 20:12:00,
2013-01-16 15:23:00,51.0,47.0,-100.00,ENE,70,3.0,5.0,85,-99.99,,,-99.99,,2013-01-16 20:23:00,
2013-01-16 15:33:00,51.0,47.0,-100.00,NE,55,1.0,4.0,85,-99.99,,,-99.99,,2013-01-16 20:33:00,
2013-01-16 15:43:00,51.0,47.0,-100.00,ENE,70,1.0,1.0,85,-99.99,,,-99.99,,2013-01-16 20:43:00,
2013-01-16 15:53:00,52.0,47.0,-100.00,ENE,70,1.0,1.0,85,-99.99,,,-99.99,,2013-01-16 20:53:00,
2013-01-16 16:03:00,52.0,47.0,-100.00,ENE,70,1.0,3.0,85,-99.99,,,-99.99,,2013-01-16 21:03:00,
2013-01-16 16:12:00,52.0,47.0,-100.00,ENE,75,1.0,3.0,85,-99.99,,,-99.99,,2013-01-16 21:12:00,
2013-01-16 16:23:00,51.0,47.0,-100.00,ENE,70,0.0,4.0,85,-99.99,,,-99.99,,2013-01-16 21:23:00,
2013-01-16 16:33:00,52.0,47.0,-100.00,ENE,70,0.0,3.0,85,-99.99,,,-99.99,,2013-01-16 21:33:00,
2013-01-16 16:43:00,52.0,48.0,-100.00,ENE,70,0.0,3.0,85,-99.99,,,-99.99,,2013-01-16 21:43:00,
2013-01-16 16:52:00,52.0,48.0,-100.00,ENE,70,1.0,4.0,85,-99.99,,,-99.99,,2013-01-16 21:52:00,
2013-01-16 17:03:00,52.0,48.0,-100.00,ENE,70,1.0,4.0,85,-99.99,,,-99.99,,2013-01-16 22:03:00,
2013-01-16 17:12:00,53.0,48.0,-100.00,ENE,75,0.0,2.0,85,-99.99,,,-99.99,,2013-01-16 22:12:00,
2013-01-16 17:23:00,53.0,48.0,-100.00,ENE,70,4.0,4.0,85,-99.99,,,-99.99,,2013-01-16 22:23:00,
2013-01-16 17:33:00,53.0,48.0,-100.00,ENE,70,1.0,4.0,85,-99.99,,,-99.99,,2013-01-16 22:33:00,
2013-01-16 17:43:00,53.0,48.0,-100.00,ENE,70,0.0,1.0,85,-99.99,,,-99.99,,2013-01-16 22:43:00,
2013-01-16 17:52:00,53.0,48.0,-100.00,ENE,70,2.0,4.0,85,-99.99,,,-99.99,,2013-01-16 22:52:00,
2013-01-16 18:03:00,52.0,48.0,-100.00,ENE,70,3.0,4.0,85,-99.99,,,-99.99,,2013-01-16 23:03:00,
2013-01-16 18:12:00,52.0,48.0,-100.00,ENE,70,4.0,5.0,85,-99.99,,,-99.99,,2013-01-16 23:12:00,
2013-01-16 18:23:00,52.0,48.0,-100.00,ENE,70,2.0,5.0,85,-99.99,,,-99.99,,2013-01-16 23:23:00,
2013-01-16 18:33:00,52.0,47.0,-100.00,ENE,70,2.0,4.0,85,-99.99,,,-99.99,,2013-01-16 23:33:00,
2013-01-16 18:43:00,51.0,47.0,-100.00,ENE,70,3.0,4.0,85,-99.99,,,-99.99,,2013-01-16 23:43:00,
2013-01-16 18:52:00,51.0,47.0,-100.00,ENE,70,2.0,3.0,85,-99.99,,,-99.99,,2013-01-16 23:52:00,
2013-01-16 19:02:00,51.0,47.0,-100.00,ENE,70,3.0,4.0,86,-99.99,,,-99.99,,2013-01-17 00:02:00,
2013-01-16 19:12:00,51.0,47.0,-100.00,ENE,70,1.0,4.0,86,-99.99,,,-99.99,,2013-01-17 00:12:00,
2013-01-16 19:22:00,51.0,47.0,-100.00,ENE,70,1.0,2.0,86,-99.99,,,-99.99,,2013-01-17 00:22:00,
2013-01-16 19:32:00,51.0,47.0,-100.00,ENE,70,1.0,3.0,86,-99.99,,,-99.99,,2013-01-17 00:32:00,
2013-01-16 19:42:00,51.0,47.0,-100.00,ENE,70,1.0,2.0,86,-99.99,,,-99.99,,2013-01-17 00:42:00,
2013-01-16 19:52:00,51.0,47.0,-100.00,ENE,70,0.0,1.0,86,-99.99,,,-99.99,,2013-01-17 00:52:00,
2013-01-16 20:02:00,51.0,48.0,-100.00,ENE,70,0.0,1.0,87,-99.99,,,-99.99,,2013-01-17 01:02:00,
2013-01-16 20:12:00,51.0,47.0,-100.00,ENE,70,1.0,1.0,87,-99.99,,,-99.99,,2013-01-17 01:12:00,
2013-01-16 20:22:00,51.0,47.0,-100.00,ENE,70,0.0,2.0,87,-99.99,,,-99.99,,2013-01-17 01:22:00,
2013-01-16 20:33:00,51.0,48.0,-100.00,ENE,70,2.0,3.0,87,-99.99,,,-99.99,,2013-01-17 01:33:00,
2013-01-16 20:42:00,51.0,48.0,-100.00,ENE,70,1.0,3.0,87,-99.99,,,-99.99,,2013-01-17 01:42:00,
2013-01-16 20:52:00,51.0,48.0,-100.00,ENE,70,1.0,3.0,87,-99.99,,,-99.99,,2013-01-17 01:52:00,
2013-01-16 21:02:00,51.0,47.0,-100.00,ENE,70,1.0,2.0,87,-99.99,,,-99.99,,2013-01-17 02:02:00,
2013-01-16 21:12:00,51.0,47.0,-100.00,ENE,70,2.0,4.0,87,-99.99,,,-99.99,,2013-01-17 02:12:00,
2013-01-16 21:22:00,51.0,47.0,-100.00,ENE,70,1.0,3.0,87,-99.99,,,-99.99,,2013-01-17 02:22:00,
2013-01-16 21:32:00,51.0,48.0,-100.00,ENE,70,1.0,2.0,88,-99.99,,,-99.99,,2013-01-17 02:32:00,
2013-01-16 21:43:00,51.0,48.0,-100.00,ENE,70,1.0,2.0,88,-99.99,,,-99.99,,2013-01-17 02:43:00,
2013-01-16 21:52:00,51.0,48.0,-100.00,ENE,70,1.0,2.0,88,-99.99,,,-99.99,,2013-01-17 02:52:00,
2013-01-16 22:03:00,51.0,48.0,-100.00,ENE,70,0.0,1.0,88,-99.99,,,-99.99,,2013-01-17 03:03:00,
2013-01-16 22:12:00,51.0,48.0,-100.00,ENE,70,0.0,2.0,88,-99.99,,,-99.99,,2013-01-17 03:12:00,
2013-01-16 22:22:00,51.0,48.0,-100.00,ENE,70,0.0,0.0,88,-99.99,,,-99.99,,2013-01-17 03:22:00,
2013-01-16 22:33:00,51.0,48.0,-100.00,ENE,70,0.0,0.0,88,-99.99,,,-99.99,,2013-01-17 03:33:00,
2013-01-16 22:43:00,51.0,48.0,-100.00,ENE,70,0.0,1.0,88,-99.99,,,-99.99,,2013-01-17 03:43:00,
2013-01-16 22:52:00,51.0,48.0,-100.00,ENE,70,0.0,1.0,88,-99.99,,,-99.99,,2013-01-17 03:52:00,
2013-01-16 23:02:00,51.0,48.0,-100.00,ENE,70,0.0,0.0,88,-99.99,,,-99.99,,2013-01-17 04:02:00,
2013-01-16 23:12:00,51.0,47.0,-100.00,ENE,70,0.0,0.0,88,-99.99,,,-99.99,,2013-01-17 04:12:00,
2013-01-16 23:23:00,51.0,48.0,-100.00,ENE,70,0.0,1.0,88,-99.99,,,-99.99,,2013-01-17 04:23:00,
2013-01-16 23:33:00,51.0,47.0,-100.00,ENE,70,0.0,1.0,88,-99.99,,,-99.99,,2013-01-17 04:33:00,
2013-01-16 23:42:00,51.0,47.0,-100.00,ENE,70,1.0,1.0,88,-99.99,,,-99.99,,2013-01-17 04:42:00,
2013-01-16 23:52:00,51.0,47.0,-100.00,ENE,70,0.0,2.0,88,-99.99,,,-99.99,,2013-01-17 04:52:00,